Tracking 31027 objects as of 19-Jul-2025
HD Live streaming from Space Station
objects crossing your sky now

DELTA 1 DEB

Track DELTA 1 DEB now!
10-day predictions


NORAD ID: 21352
Int'l Code: 1975-052BW
Perigee: 984.4 km
Apogee: 1,415.0 km
Inclination: 99.5 °
Period: 109.3 minutes
Semi major axis: 7570 km
RCS: 0.0322 m2 (small)
Launch date: June 12, 1975
Source: United States (US)
Launch site: AIR FORCE WESTERN TEST RANGE (AFWTR)

Note: This is SATELLITE DEBRIS
Your satellite tracking list
COSMOS 2502
Track 1 satellite(s)




NASA's NSSDC Master Catalog

Two Line Element Set (TLE):
1 21352U 75052BW  25199.44399176  .00001160  00000-0  24977-2 0  9990
2 21352  99.5357 276.8069 0284382 276.4615  96.5510 13.17940643630114
Source of the keplerian elements: AFSPC